When you browse on this site, cookies collect data to enhance your experience and personalize the content and advertising you see.
Visit our Privacy Policy to learn more. By continuing to use the site, you agree to this use of cookies and data.
  • In Deutschland
  • Länderverzeichnis
  • Für 7 Tage
  • Wassertemperatur
  • Wetterkarte
  • Widgets
  • user-avatar
    Anmelden

    Stündliche Wetter Chikunova

    Heute, 24 Februar, Montag

    Zeit Temperatur Niederschläge Wind Luftdruck Luftfeuchtigkeit
    00:00 -12°C° 0 mm 4 m/S 754 mmHg 94%
    01:00 -14°C° 0 mm 4 m/S 753 mmHg 93%
    02:00 -14°C° 0 mm 4 m/S 753 mmHg 93%
    03:00 -14°C° 0 mm 5 m/S 753 mmHg 92%
    04:00 -14°C° 0 mm 4 m/S 753 mmHg 94%
    05:00 -14°C° 0 mm 5 m/S 752 mmHg 94%
    06:00 -14°C° 0 mm 5 m/S 751 mmHg 93%
    07:00 -15°C° 0 mm 6 m/S 751 mmHg 93%
    08:00 -14°C° 0 mm 6 m/S 750 mmHg 92%
    09:00 -13°C° 0 mm 7 m/S 750 mmHg 91%
    10:00 -12°C° 0 mm 8 m/S 750 mmHg 90%
    11:00 -12°C° 0 mm 8 m/S 749 mmHg 89%
    12:00 -11°C° 0 mm 8 m/S 749 mmHg 89%
    13:00 -11°C° 0 mm 8 m/S 748 mmHg 89%
    14:00 -11°C° 0 mm 8 m/S 748 mmHg 89%
    15:00 -11°C° 0 mm 8 m/S 747 mmHg 89%
    16:00 -11°C° 0 mm 8 m/S 747 mmHg 89%
    17:00 -11°C° 0.4 mm 8 m/S 747 mmHg 91%
    18:00 -11°C° 0.4 mm 8 m/S 746 mmHg 92%
    19:00 -11°C° 0.4 mm 8 m/S 746 mmHg 93%
    20:00 -11°C° 0.4 mm 8 m/S 745 mmHg 93%
    21:00 -11°C° 0.4 mm 7 m/S 745 mmHg 93%
    22:00 -11°C° 0.4 mm 7 m/S 745 mmHg 93%
    23:00 -10°C° 0.1 mm 6 m/S 745 mmHg 92%

    Morgen, 25 Februar, Dienstag

    Zeit Temperatur Niederschläge Wind Luftdruck Luftfeuchtigkeit
    00:00 -10°C° 0.1 mm 6 m/S 745 mmHg 92%
    01:00 -9°C° 0.1 mm 6 m/S 744 mmHg 92%
    02:00 -10°C° 0 mm 5 m/S 745 mmHg 92%
    03:00 -10°C° 0 mm 4 m/S 745 mmHg 93%
    04:00 -11°C° 0 mm 4 m/S 746 mmHg 93%
    05:00 -11°C° 0 mm 4 m/S 746 mmHg 94%
    06:00 -12°C° 0 mm 3 m/S 746 mmHg 94%
    07:00 -13°C° 0 mm 3 m/S 746 mmHg 94%
    08:00 -10°C° 0 mm 3 m/S 746 mmHg 94%
    09:00 -8°C° 0 mm 3 m/S 747 mmHg 93%
    10:00 -7°C° 0 mm 3 m/S 747 mmHg 93%
    11:00 -6°C° 0 mm 3 m/S 747 mmHg 93%
    12:00 -5°C° 0 mm 3 m/S 747 mmHg 93%
    13:00 -5°C° 0 mm 3 m/S 747 mmHg 92%
    14:00 -5°C° 0 mm 3 m/S 747 mmHg 93%
    15:00 -5°C° 0 mm 3 m/S 747 mmHg 94%
    16:00 -6°C° 0 mm 3 m/S 747 mmHg 94%
    17:00 -8°C° 0 mm 4 m/S 747 mmHg 95%
    18:00 -8°C° 0 mm 4 m/S 747 mmHg 95%
    19:00 -9°C° 0 mm 4 m/S 747 mmHg 95%
    20:00 -10°C° 0 mm 5 m/S 747 mmHg 95%
    21:00 -10°C° 0 mm 5 m/S 746 mmHg 95%
    22:00 -10°C° 0 mm 5 m/S 746 mmHg 95%
    23:00 -10°C° 0 mm 5 m/S 746 mmHg 95%

    übermorgen, 26 Februar, Mittwoch

    Zeit Temperatur Niederschläge Wind Luftdruck Luftfeuchtigkeit
    00:00 -8°C° 0 mm 5 m/S 745 mmHg 95%
    01:00 -8°C° 0 mm 5 m/S 745 mmHg 95%
    02:00 -8°C° 0.1 mm 5 m/S 744 mmHg 94%
    03:00 -8°C° 0.1 mm 5 m/S 744 mmHg 94%
    04:00 -8°C° 0.1 mm 5 m/S 743 mmHg 93%
    05:00 -8°C° 0 mm 5 m/S 742 mmHg 94%
    06:00 -9°C° 0 mm 6 m/S 741 mmHg 94%
    07:00 -9°C° 0 mm 6 m/S 741 mmHg 94%
    08:00 -8°C° 0 mm 6 m/S 740 mmHg 94%
    09:00 -8°C° 0 mm 6 m/S 739 mmHg 95%
    10:00 -7°C° 0 mm 7 m/S 738 mmHg 95%
    11:00 -6°C° 0.1 mm 7 m/S 737 mmHg 94%
    12:00 -6°C° 0.1 mm 7 m/S 736 mmHg 94%
    13:00 -4°C° 0.1 mm 7 m/S 735 mmHg 93%
    14:00 -4°C° 1.3 mm 6 m/S 734 mmHg 94%
    15:00 -5°C° 1.3 mm 6 m/S 734 mmHg 95%
    16:00 -5°C° 1.3 mm 5 m/S 733 mmHg 96%
    17:00 -4°C° 0.5 mm 4 m/S 732 mmHg 97%
    18:00 -4°C° 0.5 mm 3 m/S 732 mmHg 97%
    19:00 -3°C° 0.5 mm 2 m/S 731 mmHg 97%
    20:00 -4°C° 0.6 mm 3 m/S 731 mmHg 97%
    21:00 -4°C° 0.6 mm 3 m/S 731 mmHg 97%
    22:00 -4°C° 0.6 mm 4 m/S 731 mmHg 97%
    23:00 -4°C° 0.4 mm 4 m/S 731 mmHg 96%

    27 Februar, Donnerstag

    Zeit Temperatur Niederschläge Wind Luftdruck Luftfeuchtigkeit
    00:00 -5°C° 0.4 mm 5 m/S 731 mmHg 96%
    01:00 -5°C° 0.4 mm 5 m/S 731 mmHg 95%
    02:00 -5°C° 0.2 mm 6 m/S 732 mmHg 94%
    03:00 -5°C° 0.2 mm 6 m/S 732 mmHg 94%
    04:00 -5°C° 0.2 mm 6 m/S 733 mmHg 93%
    05:00 -6°C° 0 mm 7 m/S 734 mmHg 91%
    06:00 -7°C° 0 mm 7 m/S 735 mmHg 89%
    07:00 -7°C° 0 mm 7 m/S 736 mmHg 88%
    08:00 -6°C° 0 mm 7 m/S 737 mmHg 86%
    09:00 -4°C° 0 mm 7 m/S 738 mmHg 85%
    10:00 -3°C° 0 mm 7 m/S 739 mmHg 83%
    11:00 -3°C° 0 mm 7 m/S 740 mmHg 82%
    12:00 -3°C° 0 mm 6 m/S 741 mmHg 80%
    13:00 -3°C° 0 mm 6 m/S 742 mmHg 79%
    14:00 -4°C° 0 mm 5 m/S 742 mmHg 79%
    15:00 -3°C° 0 mm 4 m/S 743 mmHg 80%
    16:00 -2°C° 0 mm 3 m/S 743 mmHg 81%
    17:00 -2°C° 0 mm 3 m/S 744 mmHg 83%
    18:00 -3°C° 0 mm 4 m/S 744 mmHg 86%
    19:00 -3°C° 0 mm 4 m/S 745 mmHg 88%
    20:00 -3°C° 0 mm 4 m/S 745 mmHg 89%
    21:00 -3°C° 0 mm 4 m/S 746 mmHg 90%
    22:00 -3°C° 0 mm 4 m/S 747 mmHg 92%
    23:00 -3°C° 0 mm 4 m/S 747 mmHg 92%

    28 Februar, Freitag

    Zeit Temperatur Niederschläge Wind Luftdruck Luftfeuchtigkeit
    00:00 -3°C° 0 mm 4 m/S 747 mmHg 92%
    01:00 -2°C° 0 mm 3 m/S 747 mmHg 92%
    02:00 -3°C° 0 mm 4 m/S 748 mmHg 92%
    03:00 -3°C° 0 mm 4 m/S 748 mmHg 91%
    04:00 -4°C° 0 mm 4 m/S 748 mmHg 90%
    05:00 -4°C° 0 mm 4 m/S 749 mmHg 90%
    06:00 -4°C° 0 mm 4 m/S 749 mmHg 90%
    07:00 -4°C° 0 mm 4 m/S 749 mmHg 90%
    08:00 -3°C° 0 mm 4 m/S 749 mmHg 93%
    09:00 -2°C° 0 mm 4 m/S 750 mmHg 96%
    10:00 -2°C° 0 mm 5 m/S 750 mmHg 99%
    11:00 -1°C° 0.2 mm 5 m/S 750 mmHg 99%
    12:00 -1°C° 0.2 mm 5 m/S 750 mmHg 99%
    13:00 -1°C° 0.2 mm 5 m/S 750 mmHg 99%
    14:00 -1°C° 0 mm 5 m/S 750 mmHg 98%
    15:00 -1°C° 0 mm 4 m/S 750 mmHg 97%
    16:00 -1°C° 0 mm 4 m/S 751 mmHg 96%
    17:00 -2°C° 0 mm 4 m/S 751 mmHg 94%
    18:00 -2°C° 0 mm 4 m/S 751 mmHg 93%
    19:00 -3°C° 0 mm 4 m/S 752 mmHg 91%
    20:00 -3°C° 0 mm 4 m/S 752 mmHg 90%
    21:00 -3°C° 0 mm 4 m/S 752 mmHg 90%
    22:00 -4°C° 0 mm 4 m/S 752 mmHg 90%
    23:00 -4°C° 0 mm 3 m/S 752 mmHg 89%

    29 Februar, Samstag

    Zeit Temperatur Niederschläge Wind Luftdruck Luftfeuchtigkeit
    00:00 -5°C° 0 mm 3 m/S 752 mmHg 88%
    01:00 -5°C° 0 mm 3 m/S 753 mmHg 88%
    02:00 -7°C° 0 mm 4 m/S 753 mmHg 87%
    03:00 -7°C° 0 mm 4 m/S 753 mmHg 86%
    04:00 -7°C° 0 mm 4 m/S 753 mmHg 86%
    05:00 -7°C° 0 mm 5 m/S 753 mmHg 84%
    06:00 -6°C° 0 mm 5 m/S 753 mmHg 82%
    07:00 -6°C° 0 mm 6 m/S 753 mmHg 80%
    08:00 -5°C° 0 mm 6 m/S 753 mmHg 79%
    09:00 -6°C° 0 mm 7 m/S 752 mmHg 77%
    10:00 -4°C° 0 mm 7 m/S 752 mmHg 76%
    11:00 -4°C° 0 mm 7 m/S 752 mmHg 77%
    12:00 -3°C° 0 mm 7 m/S 752 mmHg 78%
    13:00 -3°C° 0 mm 6 m/S 752 mmHg 79%
    14:00 -3°C° 0 mm 6 m/S 752 mmHg 80%
    15:00 -3°C° 0 mm 6 m/S 752 mmHg 81%
    16:00 -3°C° 0 mm 7 m/S 752 mmHg 83%
    17:00 -4°C° 0 mm 7 m/S 752 mmHg 83%
    18:00 -5°C° 0 mm 6 m/S 752 mmHg 84%
    19:00 -5°C° 0 mm 6 m/S 752 mmHg 85%
    20:00 -6°C° 0 mm 6 m/S 752 mmHg 86%
    21:00 -6°C° 0 mm 6 m/S 752 mmHg 87%
    22:00 -6°C° 0 mm 5 m/S 752 mmHg 88%
    23:00 -7°C° 0 mm 5 m/S 752 mmHg 89%
    Mehr zeigen